Year,Month,Day,Hour,Minute,Value (Times are PST for temperature in C)
2014,12,04,09,01,3.40
2014,12,04,09,02,3.40
2014,12,04,09,03,3.40
2014,12,04,09,04,3.40
2014,12,04,09,05,3.40
2014,12,04,09,06,3.40
2014,12,04,09,07,3.40
2014,12,04,09,08,3.40
2014,12,04,09,09,3.40
2014,12,04,09,10,3.40
2014,12,04,09,11,3.40
2014,12,04,09,12,3.40
2014,12,04,09,13,3.40
2014,12,04,09,14,3.40
2014,12,04,09,15,3.40
2014,12,04,09,16,3.40
2014,12,04,09,17,3.40
2014,12,04,09,18,3.50
2014,12,04,09,19,3.50
2014,12,04,09,20,3.50
2014,12,04,09,21,3.50
2014,12,04,09,22,3.50
2014,12,04,09,23,3.50
2014,12,04,09,24,3.50
2014,12,04,09,25,3.60
2014,12,04,09,26,3.60
2014,12,04,09,27,3.60
2014,12,04,09,28,3.60
2014,12,04,09,29,3.60
2014,12,04,09,30,3.60
2014,12,04,09,31,3.60
2014,12,04,09,32,3.60
2014,12,04,09,33,3.60
2014,12,04,09,34,3.60
2014,12,04,09,35,3.60
2014,12,04,09,36,3.60
2014,12,04,09,37,3.60
2014,12,04,09,38,3.70
2014,12,04,09,39,3.70
2014,12,04,09,40,3.70
2014,12,04,09,41,3.70
2014,12,04,09,42,3.70
2014,12,04,09,43,3.70
2014,12,04,09,44,3.70
2014,12,04,09,45,3.70
2014,12,04,09,46,3.70
2014,12,04,09,47,3.70
2014,12,04,09,48,3.70
2014,12,04,09,49,3.70
2014,12,04,09,50,3.70
2014,12,04,09,51,3.70
2014,12,04,09,52,3.80
2014,12,04,09,53,3.80
2014,12,04,09,54,3.80
2014,12,04,09,55,3.80
2014,12,04,09,56,3.80
2014,12,04,09,57,3.80
2014,12,04,09,58,3.80
2014,12,04,09,59,3.80
2014,12,04,10,00,3.80
2014,12,04,10,01,3.80
2014,12,04,10,02,3.80
2014,12,04,10,03,3.80
2014,12,04,10,04,3.90
2014,12,04,10,05,3.90
2014,12,04,10,06,3.90
2014,12,04,10,07,3.90
2014,12,04,10,08,3.90
2014,12,04,10,09,3.90
2014,12,04,10,10,3.90
2014,12,04,10,11,3.90
2014,12,04,10,12,4.00
2014,12,04,10,13,4.00
2014,12,04,10,14,4.00
2014,12,04,10,15,4.00
2014,12,04,10,16,4.10
2014,12,04,10,17,4.10
2014,12,04,10,18,4.10
2014,12,04,10,19,4.10
2014,12,04,10,20,4.10
2014,12,04,10,21,4.10
2014,12,04,10,22,4.20
2014,12,04,10,23,4.20
2014,12,04,10,24,4.20
2014,12,04,10,25,4.20
2014,12,04,10,26,4.20
2014,12,04,10,27,4.30
2014,12,04,10,28,4.30
2014,12,04,10,29,4.30
2014,12,04,10,30,4.30
2014,12,04,10,31,4.30
2014,12,04,10,32,4.40
2014,12,04,10,33,4.40
2014,12,04,10,34,4.40
2014,12,04,10,35,4.40
2014,12,04,10,36,4.40
2014,12,04,10,37,4.50
2014,12,04,10,38,4.50
2014,12,04,10,39,4.50
2014,12,04,10,40,4.60
2014,12,04,10,41,4.60
2014,12,04,10,42,4.70
2014,12,04,10,43,4.70
2014,12,04,10,44,4.70
2014,12,04,10,45,4.70
2014,12,04,10,46,4.70
2014,12,04,10,47,4.70
2014,12,04,10,48,4.70
2014,12,04,10,49,4.70
2014,12,04,10,50,4.70
2014,12,04,10,51,4.70
2014,12,04,10,52,4.80
2014,12,04,10,53,4.80
2014,12,04,10,54,4.80
2014,12,04,10,55,4.90
2014,12,04,10,56,4.90
2014,12,04,10,57,4.90
2014,12,04,10,58,4.90
2014,12,04,10,59,5.00
2014,12,04,11,00,5.00
2014,12,04,11,01,5.00
2014,12,04,11,02,5.10
2014,12,04,11,03,5.10
2014,12,04,11,04,5.10
2014,12,04,11,05,5.10
2014,12,04,11,06,5.10
2014,12,04,11,07,5.10
2014,12,04,11,08,5.10
2014,12,04,11,09,5.20
2014,12,04,11,10,5.20
2014,12,04,11,11,5.20
2014,12,04,11,12,5.20
2014,12,04,11,13,5.20
2014,12,04,11,14,5.20
2014,12,04,11,15,5.20
2014,12,04,11,16,5.20
2014,12,04,11,17,5.20
2014,12,04,11,18,5.20
2014,12,04,11,19,5.20
2014,12,04,11,20,5.20
2014,12,04,11,21,5.20
2014,12,04,11,22,5.20
2014,12,04,11,23,5.20
2014,12,04,11,24,5.20
2014,12,04,11,25,5.20
2014,12,04,11,26,5.20
2014,12,04,11,27,5.20
2014,12,04,11,28,5.20
2014,12,04,11,29,5.20
2014,12,04,11,30,5.20
2014,12,04,11,31,5.20
2014,12,04,11,32,5.30
2014,12,04,11,33,5.30
2014,12,04,11,34,5.30
2014,12,04,11,35,5.30
2014,12,04,11,36,5.30
2014,12,04,11,37,5.30
2014,12,04,11,38,5.30
2014,12,04,11,39,5.40
2014,12,04,11,40,5.40
2014,12,04,11,41,5.40
2014,12,04,11,42,5.40
2014,12,04,11,43,5.40
2014,12,04,11,44,5.40
2014,12,04,11,45,5.50
2014,12,04,11,46,5.50
2014,12,04,11,47,5.50
2014,12,04,11,48,5.50
2014,12,04,11,49,5.60
2014,12,04,11,50,5.60
2014,12,04,11,51,5.60
2014,12,04,11,52,5.60
2014,12,04,11,53,5.60
2014,12,04,11,54,5.60
2014,12,04,11,55,5.50
2014,12,04,11,56,5.50
2014,12,04,11,57,5.50
2014,12,04,11,58,5.40
2014,12,04,11,59,5.40
2014,12,04,12,00,5.40
2014,12,04,12,01,5.50
2014,12,04,12,02,5.50
2014,12,04,12,03,5.50
2014,12,04,12,04,5.50
2014,12,04,12,05,5.50
2014,12,04,12,06,5.50
2014,12,04,12,07,5.60
2014,12,04,12,08,5.60
2014,12,04,12,09,5.60
2014,12,04,12,10,5.60
2014,12,04,12,11,5.70
2014,12,04,12,12,5.70
2014,12,04,12,13,5.70
2014,12,04,12,14,5.60
2014,12,04,12,15,5.60
2014,12,04,12,16,5.60
2014,12,04,12,17,5.60
2014,12,04,12,18,5.60
2014,12,04,12,19,5.70
2014,12,04,12,20,5.60
2014,12,04,12,21,5.70
2014,12,04,12,22,5.60
2014,12,04,12,23,5.60
2014,12,04,12,24,5.60
2014,12,04,12,25,5.60
2014,12,04,12,26,5.60
2014,12,04,12,27,5.60
2014,12,04,12,28,5.60
2014,12,04,12,29,5.60
2014,12,04,12,30,5.60
2014,12,04,12,31,5.60
2014,12,04,12,32,5.60
2014,12,04,12,33,5.60
2014,12,04,12,34,5.60
2014,12,04,12,35,5.60
2014,12,04,12,36,5.60
2014,12,04,12,37,5.60
2014,12,04,12,38,5.60
2014,12,04,12,39,5.60
2014,12,04,12,40,5.60
2014,12,04,12,41,5.60
2014,12,04,12,42,5.70
2014,12,04,12,43,5.70
2014,12,04,12,44,5.70
2014,12,04,12,45,5.70
2014,12,04,12,46,5.70
2014,12,04,12,47,5.70
2014,12,04,12,48,5.70
2014,12,04,12,49,5.70
2014,12,04,12,50,5.70
2014,12,04,12,51,5.70
2014,12,04,12,52,5.60
2014,12,04,12,53,5.60
2014,12,04,12,54,5.60
2014,12,04,12,55,5.60
2014,12,04,12,56,5.60
2014,12,04,12,57,5.60
2014,12,04,12,58,5.60
2014,12,04,12,59,5.60
2014,12,04,13,00,5.60
2014,12,04,13,01,5.60
2014,12,04,13,02,5.60
2014,12,04,13,03,5.60
2014,12,04,13,04,5.60
2014,12,04,13,05,5.60
2014,12,04,13,06,5.70
2014,12,04,13,07,5.70
2014,12,04,13,08,5.70
2014,12,04,13,09,5.70
2014,12,04,13,10,5.70
2014,12,04,13,11,5.70
2014,12,04,13,12,5.70
2014,12,04,13,13,5.70
2014,12,04,13,14,5.70
2014,12,04,13,15,5.60
2014,12,04,13,16,5.60
2014,12,04,13,17,5.60
2014,12,04,13,18,5.60
2014,12,04,13,19,5.60
2014,12,04,13,20,5.60
2014,12,04,13,21,5.60
2014,12,04,13,22,5.60
2014,12,04,13,23,5.60
2014,12,04,13,24,5.60
2014,12,04,13,25,5.60
2014,12,04,13,26,5.60
2014,12,04,13,27,5.60
2014,12,04,13,28,5.60
2014,12,04,13,29,5.60
2014,12,04,13,30,5.60
2014,12,04,13,31,5.60
2014,12,04,13,32,5.60
2014,12,04,13,33,5.60
2014,12,04,13,34,5.60
2014,12,04,13,35,5.60
2014,12,04,13,36,5.60
2014,12,04,13,37,5.60
2014,12,04,13,38,5.60
2014,12,04,13,39,5.60
2014,12,04,13,40,5.60
2014,12,04,13,41,5.50
2014,12,04,13,42,5.50
2014,12,04,13,43,5.50
2014,12,04,13,44,5.50
2014,12,04,13,45,5.50
2014,12,04,13,46,5.50
2014,12,04,13,47,5.50
2014,12,04,13,48,5.50
2014,12,04,13,49,5.50
2014,12,04,13,50,5.50
2014,12,04,13,51,5.50
2014,12,04,13,52,5.50
2014,12,04,13,53,5.50
2014,12,04,13,54,5.50
2014,12,04,13,55,5.50
2014,12,04,13,56,5.50
2014,12,04,13,57,5.40
2014,12,04,13,58,5.40
2014,12,04,13,59,5.40
2014,12,04,14,00,5.40
2014,12,04,14,01,5.40
2014,12,04,14,02,5.40
2014,12,04,14,03,5.40
2014,12,04,14,04,5.40
2014,12,04,14,05,5.50
2014,12,04,14,06,5.50
2014,12,04,14,07,5.50
2014,12,04,14,08,5.50
2014,12,04,14,09,5.50
2014,12,04,14,10,5.40
2014,12,04,14,11,5.50
2014,12,04,14,12,5.40
2014,12,04,14,13,5.50
2014,12,04,14,14,5.50
2014,12,04,14,15,5.40
2014,12,04,14,16,5.40
2014,12,04,14,17,5.40
2014,12,04,14,18,5.40
2014,12,04,14,19,5.40
2014,12,04,14,20,5.40
2014,12,04,14,21,5.40
2014,12,04,14,22,5.30
2014,12,04,14,23,5.30
2014,12,04,14,24,5.30
2014,12,04,14,25,5.30
2014,12,04,14,26,5.30
2014,12,04,14,27,5.30
2014,12,04,14,28,5.30
2014,12,04,14,29,5.30
2014,12,04,14,30,5.30
2014,12,04,14,31,5.30
2014,12,04,14,32,5.20
2014,12,04,14,33,5.20
2014,12,04,14,34,5.20
2014,12,04,14,35,5.20
2014,12,04,14,36,5.20
2014,12,04,14,37,5.20
2014,12,04,14,38,5.20
2014,12,04,14,39,5.20
2014,12,04,14,40,5.20
2014,12,04,14,41,5.20
2014,12,04,14,42,5.20
2014,12,04,14,43,5.30
2014,12,04,14,44,5.30
2014,12,04,14,45,5.30
2014,12,04,14,46,5.30
2014,12,04,14,47,5.30
2014,12,04,14,48,5.30
2014,12,04,14,49,5.30
2014,12,04,14,50,5.20
2014,12,04,14,51,5.20
2014,12,04,14,52,5.20
2014,12,04,14,53,5.20
2014,12,04,14,54,5.20
2014,12,04,14,55,5.20
2014,12,04,14,56,5.20
2014,12,04,14,57,5.20
2014,12,04,14,58,5.20
2014,12,04,14,59,5.20
2014,12,04,15,00,5.20
2014,12,04,15,01,5.20
2014,12,04,15,02,5.20
2014,12,04,15,03,5.20
2014,12,04,15,04,5.20
2014,12,04,15,05,5.20
2014,12,04,15,06,5.20
2014,12,04,15,07,5.20
2014,12,04,15,08,5.20
2014,12,04,15,09,5.20
2014,12,04,15,10,5.20
2014,12,04,15,11,5.20
2014,12,04,15,12,5.20
2014,12,04,15,13,5.20
2014,12,04,15,14,5.20
2014,12,04,15,15,5.20
2014,12,04,15,16,5.20
2014,12,04,15,17,5.20
2014,12,04,15,18,5.20
2014,12,04,15,19,5.20
2014,12,04,15,20,5.20
2014,12,04,15,21,5.10
2014,12,04,15,22,5.10
2014,12,04,15,23,5.10
2014,12,04,15,24,5.10
2014,12,04,15,25,5.10
2014,12,04,15,26,5.10
2014,12,04,15,27,5.10
2014,12,04,15,28,5.00
2014,12,04,15,29,5.00
2014,12,04,15,30,5.00
2014,12,04,15,31,4.90
2014,12,04,15,32,4.90
2014,12,04,15,33,4.90
2014,12,04,15,34,4.90
2014,12,04,15,35,4.80
2014,12,04,15,36,4.80
2014,12,04,15,37,4.80
2014,12,04,15,38,4.80
2014,12,04,15,39,4.80
2014,12,04,15,40,4.80
2014,12,04,15,41,4.80
2014,12,04,15,42,4.70
2014,12,04,15,43,4.70
2014,12,04,15,44,4.70
2014,12,04,15,45,4.70
2014,12,04,15,46,4.70
2014,12,04,15,47,4.70
2014,12,04,15,48,4.70
2014,12,04,15,49,4.70
2014,12,04,15,50,4.70
2014,12,04,15,51,4.70
2014,12,04,15,52,4.60
2014,12,04,15,53,4.60
2014,12,04,15,54,4.60
2014,12,04,15,55,4.60
2014,12,04,15,56,4.60
2014,12,04,15,57,4.60
2014,12,04,15,58,4.60
2014,12,04,15,59,4.60
2014,12,04,16,00,4.60
2014,12,04,16,01,4.60
2014,12,04,16,02,4.60
2014,12,04,16,03,4.60
2014,12,04,16,04,4.60
2014,12,04,16,05,4.50
2014,12,04,16,06,4.50
2014,12,04,16,07,4.50
2014,12,04,16,08,4.50
2014,12,04,16,09,4.50
2014,12,04,16,10,4.50
2014,12,04,16,11,4.50
2014,12,04,16,12,4.50
2014,12,04,16,13,4.50
2014,12,04,16,14,4.40
2014,12,04,16,15,4.40
2014,12,04,16,16,4.40
2014,12,04,16,17,4.40
2014,12,04,16,18,4.40
2014,12,04,16,19,4.40
2014,12,04,16,20,4.40
2014,12,04,16,21,4.40
2014,12,04,16,22,4.40
2014,12,04,16,23,4.40
2014,12,04,16,24,4.40
2014,12,04,16,25,4.40
2014,12,04,16,26,4.40
2014,12,04,16,27,4.40
2014,12,04,16,28,4.40
2014,12,04,16,29,4.40
2014,12,04,16,30,4.40
2014,12,04,16,31,4.40
2014,12,04,16,32,4.40
2014,12,04,16,33,4.40
2014,12,04,16,34,4.30
2014,12,04,16,35,4.30
2014,12,04,16,36,4.30
2014,12,04,16,37,4.30
2014,12,04,16,38,4.30
2014,12,04,16,39,4.30
2014,12,04,16,40,4.30
2014,12,04,16,41,4.30
2014,12,04,16,42,4.30
2014,12,04,16,43,4.30
2014,12,04,16,44,4.30
2014,12,04,16,45,4.30
2014,12,04,16,46,4.30
2014,12,04,16,47,4.30
2014,12,04,16,48,4.30
2014,12,04,16,49,4.30
2014,12,04,16,50,4.30
2014,12,04,16,51,4.30
2014,12,04,16,52,4.30
2014,12,04,16,53,4.30
2014,12,04,16,54,4.30
2014,12,04,16,55,4.30
2014,12,04,16,56,4.30
2014,12,04,16,57,4.30
2014,12,04,16,58,4.30
2014,12,04,16,59,4.30
2014,12,04,17,00,4.30
2014,12,04,17,01,4.30
2014,12,04,17,02,4.30
2014,12,04,17,03,4.30
2014,12,04,17,04,4.30
2014,12,04,17,05,4.30
2014,12,04,17,06,4.30
2014,12,04,17,07,4.30
2014,12,04,17,08,4.30
2014,12,04,17,09,4.30
2014,12,04,17,10,4.30
2014,12,04,17,11,4.30
2014,12,04,17,12,4.30
2014,12,04,17,13,4.30
2014,12,04,17,14,4.30
2014,12,04,17,15,4.30
2014,12,04,17,16,4.30
2014,12,04,17,17,4.30
2014,12,04,17,18,4.30
2014,12,04,17,19,4.20
2014,12,04,17,20,4.20
2014,12,04,17,21,4.20
2014,12,04,17,22,4.20
2014,12,04,17,23,4.20
2014,12,04,17,24,4.20
2014,12,04,17,25,4.20
2014,12,04,17,26,4.20
2014,12,04,17,27,4.20
2014,12,04,17,28,4.20
2014,12,04,17,29,4.20
2014,12,04,17,30,4.20
2014,12,04,17,31,4.20
2014,12,04,17,32,4.20
2014,12,04,17,33,4.20
2014,12,04,17,34,4.20
2014,12,04,17,35,4.20
2014,12,04,17,36,4.20
2014,12,04,17,37,4.20
2014,12,04,17,38,4.20
2014,12,04,17,39,4.20
2014,12,04,17,40,4.20
2014,12,04,17,41,4.20
2014,12,04,17,42,4.20
2014,12,04,17,43,4.20
2014,12,04,17,44,4.20
2014,12,04,17,45,4.20
2014,12,04,17,46,4.20
2014,12,04,17,47,4.20
2014,12,04,17,48,4.10
2014,12,04,17,49,4.10
2014,12,04,17,50,4.10
2014,12,04,17,51,4.10
2014,12,04,17,52,4.10
2014,12,04,17,53,4.10
2014,12,04,17,54,4.10
2014,12,04,17,55,4.10
2014,12,04,17,56,4.10
2014,12,04,17,57,4.10
2014,12,04,17,58,4.10
2014,12,04,17,59,4.10
2014,12,04,18,00,4.10
2014,12,04,18,01,4.00
2014,12,04,18,02,4.00
2014,12,04,18,03,4.00
2014,12,04,18,04,4.00
2014,12,04,18,05,4.00
2014,12,04,18,06,3.90
2014,12,04,18,07,3.90
2014,12,04,18,08,3.90
2014,12,04,18,09,3.90
2014,12,04,18,10,3.90
2014,12,04,18,11,3.90
2014,12,04,18,12,3.90
2014,12,04,18,13,3.90
2014,12,04,18,14,3.90
2014,12,04,18,15,3.90
2014,12,04,18,16,3.90
2014,12,04,18,17,3.90
2014,12,04,18,18,3.90
2014,12,04,18,19,3.90
2014,12,04,18,20,3.90
